sat.trackr.live / text

‹ back to catalog

STARLINK-35026

NORAD 65514 · 2025-198Y

PAYLOAD ACTIVE UNKNOWN

§ Identity

Operator
Country
US
Launch date
2025-09-05
Launch site
AFETR
Launch vehicle
Mass (kg)
RCS (m²)

Purposes: comms

External: N2YO · Heavens-Above · Gunter

§ Orbital elements

Epoch: 2026-05-25T02:22:46.331040Z

Period
94.10 min
Inclination
53.1604°
Eccentricity
0.0001106
Mean motion
15.30206198 rev/d
Perigee alt
474.4 km
Apogee alt
476.0 km
Semi-major
6,853.3 km
B*
6.6500e-4
RAAN
276.4342°
Arg perigee
117.6925°
Mean anomaly
242.4188°
Rev number
4,031

§ Raw data

STARLINK-350261 65514U 25198Y   26145.09914735  .00019391  00000+0  66500-3 0  99942 65514  53.1604 276.4342 0001106 117.6925 242.4188 15.30206198 40311

JSON: /api/v1/satellites/65514 · /tle

For live sub-satellite position, see the globe view (requires WebGL).

§ Visibility from observer

Set your observer location to see the next 7 days of passes ≥ 10°. The values pass through the URL so the page stays shareable.

No JS? Fill the form by hand. The geolocation button needs JavaScript.